Weather Service Report


644 
ASUS43 KDTX 261901
RWRMI 
MICHIGAN HOURLY REGIONAL WEATHER ROUNDUP
NATIONAL WEATHER SERVICE DETROIT/PONTIAC MI
300 PM EDT THU MAY 26 2016

NOTE: "FAIR" INDICATES FEW OR NO CLOUDS BELOW 12,000 FEET WITH NO
SIGNIFICANT WEATHER AND/OR OBSTRUCTION TO VISIBILITY.

MIZ047>049-052>055-059>063-066>070-074>076-081>083-262000-
SOUTHEAST LOWER MICHIGAN
  
CITY           SKY/WX    TMP DP  RH WIND       PRES   REMARKS
ADRIAN         CLOUDY    81  63  54 W9        29.95F                  
ALMA           MOSUNNY   79  69  70 SW12G20   29.90F                  
ANN ARBOR      CLOUDY    81  63  54 SW9       29.93F                  
BAD AXE        PTSUNNY   80  69  69 W7        29.91F                  
CARO           MOSUNNY   83  67  58 S9        29.89F                  
DETROIT CITY   MOSUNNY   83  65  54 S14       29.93F                  
DETROIT        CLOUDY    84  63  49 SW16      29.94F                  
FLINT          MOSUNNY   84  62  47 S15G22    29.90F                  
GROSSE ILE     MOSUNNY   79  66  65 SE9       29.93F                  
HILLSDALE      PTSUNNY   82  58  43 SW13G18   29.95F                  
HOWELL         PTSUNNY   82  61  48 SW12G18   29.92F                  

CITY           SKY/WX    TMP DP  RH WIND       PRES   REMARKS
JACKSON        PTSUNNY   81  62  52 SW10G21   29.92F                  
LAMBERTVILLE   MOSUNNY   84  63  48 W8G16     29.94F                  
LANSING        PTSUNNY   82  65  56 S15G28    29.91F                  
LAPEER         FAIR      85  60  42 SW12      29.92F                  
MASON          PTSUNNY   81  63  55 S7        29.92F                  
MONROE         PTSUNNY   84  64  51 SW12G21   29.93F                  
MT. CLEMENS    PTSUNNY   80  68  65 S13       29.91F                  
PONTIAC        PTSUNNY   83  63  50 SW10      29.92F                  
PORT HOPE        N/A     66  62  87 E6        29.90F                  
PORT HURON     MOSUNNY   82  66  57 S15G21    29.93F                  
TRI CITIES     MOSUNNY   84  66  54 S13G21    29.89F                  
MIDLAND        PTSUNNY   82  67  59 S9G16     29.88S                  
TROY           MOSUNNY   86  62  44 S12G17    29.94F                  
SAGINAW HB     MOSUNNY   81  64  57 S9        29.88F                  
$$
MIZ043>046-050>051-056>058-064>065-071>073-077>080-262000-
SOUTHWEST LOWER MICHIGAN
  
CITY           SKY/WX    TMP DP  RH WIND       PRES   REMARKS
BATTLE CREEK   CLOUDY    79  65  62 SW17      29.92F                  
BENTON HARBOR  MOSUNNY   81  64  56 S8        29.87F                  
BIG RAPIDS     MOSUNNY   79  67  67 SW16G23   29.88F                  
COLDWATER      CLOUDY    80  65  58 SW10G18   29.93F                  
FREMONT        FAIR      76  69  78 SW12      29.88F                  
HOLLAND        MOSUNNY   81  67  62 SW13      29.90F                  
GRAND RAPIDS   LGT RAIN  82  67  60 SW14      29.89F                  
IONIA          FAIR      82  64  53 S13       29.89F                  
KALAMAZOO      CLOUDY    81  65  58 S14       29.91F                  
LUDINGTON      MOSUNNY   75  66  74 SW14      29.86F                  
MARSHALL       CLOUDY    81  65  57 SW15      29.92F                  
MOUNT PLEASANT PTSUNNY   80  68  66 S10       29.88F                  
MUSKEGON       PTSUNNY   77  66  68 SW16G23   29.89F                  
SOUTH HAVEN    MOSUNNY   81  68  64 SW7       29.88F                  
$$
MIZ016>042-262000-
NORTHERN LOWER MICHIGAN
  
CITY           SKY/WX    TMP DP  RH WIND       PRES   REMARKS
ALPENA         PTSUNNY   83  62  49 S8        29.85F                  
BEAVER ISLAND  CLOUDY    71  63  78 W7        29.83S                  
BELLAIRE       CLOUDY    82  63  51 SW6       29.82S                  
CADILLAC       PTSUNNY   78  66  68 SW13G23   29.87F                  
CHARLEVOIX     CLOUDY    61  56  83 NW6       29.87R                  
FRANKFORT      SUNNY     73  65  76 SW10G18   29.83R                  
GAYLORD        MOSUNNY   80  60  50 SW13G21   29.86F                  
GRAYLING       PTSUNNY   80  64  59 S8G17     29.88S                  
HARBOR SPRINGS MOSUNNY   70  62  75 CALM      29.83F                  
HOUGHTON LAKE  CLOUDY    78  64  61 SW9       29.89R                  
MANISTEE       PTSUNNY   81  64  57 S16G22    29.84F                  
OSCODA         MOSUNNY   84  64  50 S17       29.87F                  
PELLSTON       MOSUNNY   81  63  54 S9        29.84F                  
ROGERS CITY    PTSUNNY   81  62  52 SW9G16    29.85F                  
TRAVERSE CITY  PTSUNNY   84  65  52 VRB7G16   29.80F                  
$$
MIZ007>008-015-262000-
EASTERN UPPER MICHIGAN
  
CITY           SKY/WX    TMP DP  RH WIND       PRES   REMARKS
KINROSS          N/A     64  61  88 SW5       29.86S                  
MACKINAC ISLAN MOSUNNY   66  57  72 CALM      29.85F                  
NEWBERRY       MOSUNNY   66  61  84 S5        29.83F                  
S. S. MARIE    CLOUDY    66  61  84 S6        29.86R                  
MUNISING         N/A     52  50  93 NW3       29.81R                  
$$
MIZ004>006-011>014-085-262000-
CENTRAL UPPER MICHIGAN
  
CITY           SKY/WX    TMP DP  RH WIND       PRES   REMARKS
MANISTIQUE     LGT RAIN  53  52  97 S3        29.82F VSB 3/4          
ESCANABA       CLOUDY    63  57  82 SE7       29.80R                  
MENOMINEE      HVY RAIN  64  63  96 NE5       29.81S FOG              
SAWYER-GWINN   CLOUDY    64  63  94 NW8       29.82R                  
$$
MIZ001>003-009>011-084-262000-
WESTERN UPPER MICHIGAN
  
CITY           SKY/WX    TMP DP  RH WIND       PRES   REMARKS
IRON MOUNTAIN  RAIN      64  59  83 NW16      29.81R                  
HOUGHTON       LGT RAIN  60  57  89 NW13      29.81F                  
COPPER HARBOR    N/A     47  47 100 N12       29.83R                  
IRONWOOD       CLOUDY    61  61 100 E3        29.78F                  
$$

ABBREVIATIONS USED IN REMARKS
   TC - TEMPERATURE IN CELSIUS
  WCI - WIND CHILL INDEX
   HX - HEAT INDEX
  VSB - VISIBILITY

  

Return to Home page


Western Regional Climate Center, wrcc@dri.edu